"Pseudo-MPEC" for P11WLdV

Created 2024 Aug 3 18:22:07 UT using Find_Orb

Click here for an explanation of pseudo-MPECs

 
 Astrometry: 
     P11WLdV* C2024 08 01.36967019 54 38.451-33 32 45.67   ~81Gq 21.07wXNEOCPF51
     P11WLdV  C2024 08 01.37613119 54 43.539-33 32 47.29   ~81Gq 21.03wXNEOCPF51
     P11WLdV  C2024 08 01.38258319 54 48.596-33 32 48.50   ~81Gq 20.75wXNEOCPF51
     P11WLdV KC2024 08 01.54818919 57 03.329-33 31 27.08   ~81Gq 20.4 GVNEOCP474
     P11WLdV KC2024 08 01.55070719 57 05.366-33 31 27.08   ~81Gq 20.7 GVNEOCP474
     P11WLdV KC2024 08 01.55448519 57 08.318-33 31 27.26   ~81Gq 21.1 GVNEOCP474
     P11WLdV KC2024 08 01.55952319 57 12.360-33 31 27.08   ~81Gq 20.4 GVNEOCP474
     P11WLdV KC2024 08 02.41634820 08 49.152-33 30 27.76   ~82Aq 20.4 GVNEOCP474
     P11WLdV KC2024 08 02.42036220 08 52.171-33 30 27.54   ~82Aq 20.3 GVNEOCP474
     P11WLdV KC2024 08 02.42487820 08 55.546-33 30 27.14   ~82Aq 20.5 GVNEOCP474
     P11WLdV KC2024 08 02.43100220 09 00.218-33 30 26.32   ~82Aq 21.0 GVNEOCP474

Station data:
(474) Mount John Observatory, Lake Tekapo  (S43.987385 E170.464960)  New
   Zealand.  Observers A. C. Gilmore, P. M. Kilmartin. Measurer P. M.
   Kilmartin. 1.0-m f/7.7 reflector + CCD.
(F51) Pan-STARRS 1, Haleakala  (N20.707234 W156.255910)  US/Hawaii.
   Observers J. Bulger, T. Lowe, A. Schultz, M. Willman. Measurers K.
   Chambers, S. Chastel, T. de Boer, L. Denneau, J. Fairlamb, H. Flewelling,
   M. Huber, C.-C. Lin, E. Magnier, Y. Ramanjooloo, R. Wainscoat, R. Weryk.
   1.8-m Ritchey-Chrétien + CCD.

Orbital elements:  P11WLdV
   Perihelion 2024 Jul 14.70118 +/- 0.113 TT = 16:49:41 (JD 2460506.20118)
Epoch 2024 Aug  2.0 TT = JDT 2460524.5   Earth MOID: 0.0563   Ju: 0.7732
M   3.95180275 +/- 0.055            Ma: 0.0465                   AutoNEOCP
n   0.21595942 +/- 0.00213          Peri.  174.65731 +/- 0.16
a   2.75140553 +/- 0.0181           Node   113.89236 +/- 0.045
e   0.6101830 +/- 0.00244           Incl.    3.94117 +/- 0.010
P   4.56386                H 25.04  G  0.15   U  8.6
q 1.07254441 +/- 0.000434    Q 4.43026665 +/- 0.0358      (J2000 ecliptic)
From 11 observations 2024 Aug. 1-2 (25.5 hr); mean residual 0".18
Residuals in arcseconds: 
240801 F51  .10+  .09+    240801 474  .26+  .03+    240802 474  .04+  .04-    
240801 F51  .08+  .10-    240801 474  .27-  .13-    240802 474  .45-  .10-    
240801 F51  .19-  .01+    240801 474  .33+  .04+    240802 474  .15+  .03+    
240801 474  .25-  .00     240802 474  .26+  .13+    

Ephemerides (geocentric):
Date (UTC) HH   RA             Dec           delta  r     elong  mag " sig PA
---- --------  ------------   ------------  ------ ------ -----  --- --------
2024 08 03 18  20 25 34.553   -33 21 23.37  .09266 1.1034 162.6 21.0 2.90  77
2024 08 03 19  20 26 04.688   -33 20 57.45  .09279 1.1035 162.6 21.0 3.02  77
2024 08 03 20  20 26 34.741   -33 20 31.07  .09291 1.1037 162.6 21.0 3.15  77
2024 08 03 21  20 27 04.710   -33 20 04.24  .09304 1.1038 162.6 21.0 3.29  77
2024 08 03 22  20 27 34.596   -33 19 36.97  .09316 1.1039 162.7 21.0 3.42  77
2024 08 03 23  20 28 04.399   -33 19 09.26  .09329 1.1040 162.7 21.0 3.56  77
2024 08 04 00  20 28 34.118   -33 18 41.11  .09341 1.1042 162.7 21.0 3.69  77
2024 08 04 01  20 29 03.754   -33 18 12.53  .09354 1.1043 162.7 21.0 3.83  77
2024 08 04 02  20 29 33.306   -33 17 43.53  .09367 1.1044 162.8 21.0 3.98  77
2024 08 04 03  20 30 02.775   -33 17 14.09  .09380 1.1045 162.8 21.0 4.12  77
2024 08 04 04  20 30 32.161   -33 16 44.24  .09392 1.1047 162.8 21.0 4.27  78
2024 08 04 05  20 31 01.463   -33 16 13.97  .09405 1.1048 162.8 21.0 4.42  78
2024 08 04 06  20 31 30.682   -33 15 43.28  .09418 1.1049 162.9 21.0 4.57  78
2024 08 04 07  20 31 59.818   -33 15 12.18  .09431 1.1050 162.9 21.0 4.72  78
2024 08 04 08  20 32 28.870   -33 14 40.68  .09444 1.1052 162.9 21.0 4.88  78
2024 08 04 09  20 32 57.839   -33 14 08.78  .09457 1.1053 162.9 21.0 5.03  78
2024 08 04 10  20 33 26.725   -33 13 36.47  .09470 1.1054 163.0 21.0 5.19  78
2024 08 04 11  20 33 55.528   -33 13 03.77  .09483 1.1056 163.0 21.0 5.35  78
2024 08 04 12  20 34 24.248   -33 12 30.68  .09496 1.1057 163.0 21.0 5.51  78
2024 08 04 13  20 34 52.884   -33 11 57.20  .09509 1.1058 163.0 21.0 5.68  78
2024 08 04 14  20 35 21.438   -33 11 23.34  .09522 1.1060 163.0 21.0 5.84  78
2024 08 04 15  20 35 49.909   -33 10 49.10  .09535 1.1061 163.1 21.0 6.01  78
2024 08 04 16  20 36 18.296   -33 10 14.47  .09549 1.1062 163.1 21.0 6.18  78
2024 08 04 17  20 36 46.601   -33 09 39.48  .09562 1.1063 163.1 21.0 6.35  78
2024 08 04 18  20 37 14.823   -33 09 04.11  .09575 1.1065 163.1 21.0 6.53  78
2024 08 04 19  20 37 42.962   -33 08 28.38  .09588 1.1066 163.1 21.0 6.70  78
2024 08 04 20  20 38 11.018   -33 07 52.28  .09602 1.1067 163.2 21.0 6.88  78
2024 08 04 21  20 38 38.992   -33 07 15.83  .09615 1.1069 163.2 21.0 7.06  78
2024 08 04 22  20 39 06.883   -33 06 39.01  .09629 1.1070 163.2 21.0 7.24  78
2024 08 04 23  20 39 34.692   -33 06 01.85  .09642 1.1071 163.2 21.0 7.42  78
2024 08 05 00  20 40 02.418   -33 05 24.33  .09656 1.1073 163.2 21.0 7.60  78
2024 08 05 01  20 40 30.062   -33 04 46.47  .09669 1.1074 163.2 21.0 7.79  78
2024 08 05 02  20 40 57.623   -33 04 08.27  .09683 1.1075 163.3 21.0 7.98  78
2024 08 05 03  20 41 25.102   -33 03 29.73  .09696 1.1077 163.3 21.0 8.17  78
2024 08 05 04  20 41 52.499   -33 02 50.85  .09710 1.1078 163.3 21.0 8.36  78
2024 08 05 05  20 42 19.815   -33 02 11.64  .09724 1.1079 163.3 21.0 8.55  78
2024 08 05 06  20 42 47.048   -33 01 32.10  .09737 1.1081 163.3 21.0 8.74  78
2024 08 05 07  20 43 14.199   -33 00 52.24  .09751 1.1082 163.3 21.0 8.93  78
2024 08 05 08  20 43 41.268   -33 00 12.05  .09765 1.1083 163.4 21.0 9.13  78
2024 08 05 09  20 44 08.256   -32 59 31.54  .09779 1.1085 163.4 21.0 9.33  78
2024 08 05 10  20 44 35.162   -32 58 50.72  .09793 1.1086 163.4 21.1 9.53  78
2024 08 05 11  20 45 01.987   -32 58 09.58  .09807 1.1087 163.4 21.1 9.73  78
2024 08 05 12  20 45 28.730   -32 57 28.14  .09820 1.1089 163.4 21.1 9.93  78
2024 08 05 13  20 45 55.392   -32 56 46.39  .09834 1.1090 163.4 21.1 10.1  78
2024 08 05 14  20 46 21.973   -32 56 04.33  .09848 1.1091 163.5 21.1 10.3  78
2024 08 05 15  20 46 48.473   -32 55 21.98  .09862 1.1093 163.5 21.1 10.5  78
2024 08 05 16  20 47 14.892   -32 54 39.33  .09877 1.1094 163.5 21.1 10.8  78
2024 08 05 17  20 47 41.230   -32 53 56.39  .09891 1.1096 163.5 21.1 11.0  78